When you browse on this site, cookies collect data to enhance your experience and personalize the content and advertising you see.
Visit our Privacy Policy to learn more. By continuing to use the site, you agree to this use of cookies and data.
  • In Hungary
  • List of Countries
  • For 7 days
  • Water Temperature
  • Weather Map
  • News
  • Weather Widgets
  • user-avatar
    Login

    Hourly Weather Medina

    Today, 29 March, Sunday

    Time Temperature Precipitation Wind Pressure Humidity
    00:00 +17°C° 0 mm 2 mps 688 mmHg 43%
    01:00 +16°C° 0 mm 2 mps 687 mmHg 42%
    02:00 +15°C° 0 mm 2 mps 687 mmHg 41%
    03:00 +15°C° 0 mm 2 mps 687 mmHg 45%
    04:00 +14°C° 0 mm 2 mps 687 mmHg 46%
    05:00 +13°C° 0 mm 1 mps 687 mmHg 47%
    06:00 +13°C° 0 mm 1 mps 687 mmHg 48%
    07:00 +16°C° 0 mm 1 mps 687 mmHg 41%
    08:00 +19°C° 0 mm 1 mps 688 mmHg 33%
    09:00 +22°C° 0 mm 1 mps 689 mmHg 26%
    10:00 +24°C° 0 mm 2 mps 689 mmHg 24%
    11:00 +26°C° 0 mm 3 mps 689 mmHg 22%
    12:00 +28°C° 0 mm 4 mps 690 mmHg 20%
    13:00 +28°C° 0 mm 5 mps 689 mmHg 18%
    14:00 +29°C° 0 mm 6 mps 688 mmHg 17%
    15:00 +30°C° 0 mm 7 mps 688 mmHg 16%
    16:00 +29°C° 0 mm 7 mps 688 mmHg 20%
    17:00 +27°C° 0 mm 7 mps 688 mmHg 24%
    18:00 +26°C° 0 mm 7 mps 688 mmHg 29%
    19:00 +23°C° 0 mm 6 mps 688 mmHg 36%
    20:00 +21°C° 0 mm 5 mps 688 mmHg 42%
    21:00 +19°C° 0 mm 4 mps 689 mmHg 49%
    22:00 +18°C° 0 mm 3 mps 689 mmHg 51%
    23:00 +18°C° 0 mm 2 mps 689 mmHg 53%

    Tomorrow, 30 March, Monday

    Time Temperature Precipitation Wind Pressure Humidity
    00:00 +17°C° 0 mm 2 mps 689 mmHg 54%
    01:00 +17°C° 0 mm 2 mps 689 mmHg 54%
    02:00 +16°C° 0 mm 1 mps 689 mmHg 53%
    03:00 +16°C° 0 mm 1 mps 688 mmHg 52%
    04:00 +16°C° 0 mm 2 mps 689 mmHg 52%
    05:00 +15°C° 0 mm 2 mps 689 mmHg 52%
    06:00 +15°C° 0 mm 2 mps 689 mmHg 52%
    07:00 +18°C° 0 mm 3 mps 690 mmHg 46%
    08:00 +20°C° 0 mm 5 mps 691 mmHg 40%
    09:00 +22°C° 0 mm 6 mps 691 mmHg 34%
    10:00 +24°C° 0 mm 6 mps 691 mmHg 30%
    11:00 +27°C° 0 mm 5 mps 692 mmHg 26%
    12:00 +29°C° 0 mm 5 mps 692 mmHg 22%
    13:00 +30°C° 0 mm 4 mps 691 mmHg 19%
    14:00 +30°C° 0 mm 3 mps 690 mmHg 17%
    15:00 +31°C° 0 mm 3 mps 690 mmHg 14%
    16:00 +31°C° 0 mm 3 mps 689 mmHg 14%
    17:00 +31°C° 0 mm 3 mps 689 mmHg 14%
    18:00 +31°C° 0 mm 3 mps 689 mmHg 13%
    19:00 +28°C° 0 mm 2 mps 689 mmHg 17%
    20:00 +26°C° 0 mm 2 mps 689 mmHg 21%
    21:00 +23°C° 0 mm 1 mps 689 mmHg 24%
    22:00 +22°C° 0 mm 1 mps 689 mmHg 25%
    23:00 +22°C° 0 mm 1 mps 689 mmHg 25%

    Day after tomorrow, 31 March, Tuesday

    Time Temperature Precipitation Wind Pressure Humidity
    00:00 +21°C° 0 mm 1 mps 689 mmHg 26%
    01:00 +20°C° 0 mm 2 mps 689 mmHg 27%
    02:00 +19°C° 0 mm 2 mps 689 mmHg 28%
    03:00 +18°C° 0 mm 2 mps 688 mmHg 30%
    04:00 +18°C° 0 mm 2 mps 688 mmHg 31%
    05:00 +17°C° 0 mm 2 mps 689 mmHg 32%
    06:00 +16°C° 0 mm 2 mps 689 mmHg 34%
    07:00 +19°C° 0 mm 2 mps 689 mmHg 29%
    08:00 +23°C° 0 mm 2 mps 690 mmHg 25%
    09:00 +25°C° 0 mm 2 mps 691 mmHg 21%
    10:00 +27°C° 0 mm 2 mps 691 mmHg 18%
    11:00 +30°C° 0 mm 1 mps 691 mmHg 15%
    12:00 +32°C° 0 mm 1 mps 691 mmHg 13%
    13:00 +34°C° 0 mm 2 mps 691 mmHg 11%
    14:00 +35°C° 0 mm 4 mps 690 mmHg 10%
    15:00 +36°C° 0 mm 5 mps 690 mmHg 9%
    16:00 +35°C° 0 mm 6 mps 690 mmHg 11%
    17:00 +34°C° 0 mm 6 mps 690 mmHg 13%
    18:00 +33°C° 0 mm 7 mps 690 mmHg 14%
    19:00 +30°C° 0 mm 6 mps 690 mmHg 19%
    20:00 +28°C° 0 mm 5 mps 690 mmHg 23%
    21:00 +26°C° 0 mm 4 mps 690 mmHg 27%
    22:00 +25°C° 0 mm 3 mps 690 mmHg 29%
    23:00 +24°C° 0 mm 3 mps 690 mmHg 31%

    1 April, Wednesday

    Time Temperature Precipitation Wind Pressure Humidity
    00:00 +23°C° 0 mm 2 mps 689 mmHg 33%
    01:00 +21°C° 0 mm 2 mps 689 mmHg 34%
    02:00 +21°C° 0 mm 1 mps 688 mmHg 34%
    03:00 +21°C° 0 mm 1 mps 688 mmHg 35%
    04:00 +20°C° 0 mm 1 mps 688 mmHg 34%
    05:00 +20°C° 0 mm 1 mps 688 mmHg 34%
    06:00 +20°C° 0 mm 1 mps 689 mmHg 34%
    07:00 +23°C° 0 mm 2 mps 690 mmHg 28%
    08:00 +27°C° 0 mm 2 mps 690 mmHg 21%
    09:00 +30°C° 0 mm 2 mps 691 mmHg 15%
    10:00 +33°C° 0 mm 4 mps 692 mmHg 14%
    11:00 +34°C° 0 mm 5 mps 692 mmHg 12%
    12:00 +36°C° 0 mm 6 mps 692 mmHg 11%
    13:00 +36°C° 0 mm 7 mps 691 mmHg 11%
    14:00 +37°C° 0 mm 8 mps 691 mmHg 11%
    15:00 +37°C° 0 mm 9 mps 690 mmHg 10%
    16:00 +35°C° 0 mm 8 mps 690 mmHg 11%
    17:00 +34°C° 0 mm 8 mps 690 mmHg 11%
    18:00 +32°C° 0 mm 8 mps 690 mmHg 11%
    19:00 +29°C° 0 mm 6 mps 690 mmHg 13%
    20:00 +27°C° 0 mm 5 mps 690 mmHg 16%
    21:00 +25°C° 0 mm 3 mps 690 mmHg 18%
    22:00 +24°C° 0 mm 2 mps 690 mmHg 19%
    23:00 +23°C° 0 mm 2 mps 690 mmHg 21%

    2 April, Thursday

    Time Temperature Precipitation Wind Pressure Humidity
    00:00 +21°C° 0 mm 1 mps 690 mmHg 23%
    01:00 +21°C° 0 mm 1 mps 689 mmHg 24%
    02:00 +20°C° 0 mm 1 mps 689 mmHg 24%
    03:00 +19°C° 0 mm 1 mps 688 mmHg 25%
    04:00 +17°C° 0 mm 0 mps 688 mmHg 26%
    05:00 +16°C° 0 mm 0 mps 688 mmHg 26%
    06:00 +16°C° 0 mm 0 mps 688 mmHg 27%
    07:00 +19°C° 0 mm 0 mps 689 mmHg 22%
    08:00 +23°C° 0 mm 0 mps 690 mmHg 17%
    09:00 +27°C° 0 mm 0 mps 691 mmHg 12%
    10:00 +31°C° 0 mm 2 mps 691 mmHg 11%
    11:00 +34°C° 0 mm 4 mps 691 mmHg 10%
    12:00 +36°C° 0 mm 6 mps 691 mmHg 9%
    13:00 +38°C° 0 mm 7 mps 690 mmHg 9%
    14:00 +38°C° 0 mm 7 mps 690 mmHg 9%
    15:00 +38°C° 0 mm 8 mps 690 mmHg 9%
    16:00 +37°C° 0 mm 8 mps 689 mmHg 10%
    17:00 +35°C° 0 mm 7 mps 689 mmHg 12%
    18:00 +34°C° 0 mm 7 mps 689 mmHg 13%
    19:00 +32°C° 0 mm 5 mps 689 mmHg 15%
    20:00 +28°C° 0 mm 4 mps 689 mmHg 17%
    21:00 +26°C° 0 mm 2 mps 689 mmHg 19%
    22:00 +25°C° 0 mm 2 mps 689 mmHg 20%
    23:00 +24°C° 0 mm 2 mps 689 mmHg 21%

    3 April, Friday

    Time Temperature Precipitation Wind Pressure Humidity
    00:00 +23°C° 0 mm 1 mps 689 mmHg 22%
    01:00 +22°C° 0 mm 1 mps 688 mmHg 24%
    02:00 +19°C° 0 mm 0 mps 688 mmHg 25%
    03:00 +18°C° 0 mm 0 mps 687 mmHg 26%
    04:00 +18°C° 0 mm 0 mps 687 mmHg 27%
    05:00 +18°C° 0 mm 0 mps 687 mmHg 28%
    06:00 +17°C° 0 mm 0 mps 687 mmHg 28%
    07:00 +21°C° 0 mm 0 mps 688 mmHg 24%
    08:00 +24°C° 0 mm 0 mps 689 mmHg 20%
    09:00 +29°C° 0 mm 1 mps 690 mmHg 15%
    10:00 +31°C° 0 mm 1 mps 690 mmHg 14%
    11:00 +33°C° 0 mm 1 mps 690 mmHg 12%
    12:00 +36°C° 0 mm 2 mps 690 mmHg 11%
    13:00 +37°C° 0 mm 4 mps 689 mmHg 10%
    14:00 +38°C° 0 mm 6 mps 689 mmHg 10%
    15:00 +39°C° 0 mm 9 mps 689 mmHg 9%
    16:00 +38°C° 0 mm 8 mps 688 mmHg 10%
    17:00 +37°C° 0 mm 8 mps 688 mmHg 12%
    18:00 +34°C° 0 mm 8 mps 688 mmHg 13%
    19:00 +32°C° 0 mm 6 mps 688 mmHg 16%
    20:00 +29°C° 0 mm 5 mps 689 mmHg 19%
    21:00 +27°C° 0 mm 3 mps 689 mmHg 22%
    22:00 +26°C° 0 mm 2 mps 689 mmHg 25%
    23:00 +25°C° 0 mm 2 mps 689 mmHg 27%
    Show more